Regional Weather Roundup
Issued by NWS

Home | Current Version | Previous Version | Graphics & Text | Print | Product List | Glossary On
Versions: 1 2 3 4 5 6 7 8 9 10 11 12 13 14 15 16 17 18 19 20 21 22 23 24 25 26 27 28 29 30 31 32 33 34 35 36 37 38 39 40 41 42 43 44 45 46 47 48 49 50
000
ASUS45 KSLC 052310
RWRUT

UTAH REGIONAL WEATHER ROUNDUP
NATIONAL WEATHER SERVICE SALT LAKE CITY UT
400 PM MST MON DEC 05 2016

UTZ001>011-023>025-060000-

NORTHERN UTAH

CITY           SKY/WX    TMP DP  RH WIND       PRES   REMARKS
BRIGHAM CITY     N/A     32   1  27 CALM      30.04S
DUGWAY         MOCLDY    33  -6  18 NE7       30.03S WCI  27
HILL AFB       CLEAR     28   1  31 CALM      30.02S
LOGAN          CLEAR    N/A N/A N/A CALM      30.02S
OGDEN          CLEAR     30   3  31 W5        30.02S WCI  25
SALT LAKE CITY PTCLDY    31   8  38 N5        30.04S WCI  26
TOOELE VALLEY  CLOUDY    30  10  43 N6        30.04S WCI  24
WENDOVER       CLOUDY    32   3  29 SE6       30.03S WCI  26
HEBER CITY     CLOUDY    27  -8  22 N7        29.96R WCI  19
WEST JORDAN    CLOUDY    28  13  53 CALM      30.04R

$$

UTZ011>015-024>027-060000-

CENTRAL/NORTHEAST UTAH

CITY           SKY/WX    TMP DP  RH WIND       PRES   REMARKS
PROVO AIRPORT  CLOUDY    30   7  37 NW7       30.04S WCI  23
MOAB/CANYONLAN CLEAR     45  14  28 NW20      29.86R
DELTA          PTCLDY    34   0  23 N5        30.00S WCI  30
PRICE          PTCLDY    31   7  36 W7        29.90R WCI  24
ROOSEVELT      CLEAR     32 -13  14 W23G30    29.95R WCI  19
VERNAL         CLEAR     31 -13  14 N13G22    29.91R WCI  21

$$

UTZ013>016-019>022-027-060000-

SOUTHERN UTAH

CITY           SKY/WX    TMP DP  RH WIND       PRES   REMARKS
BRYCE CANYON   SUNNY     35   8  32 NW16G26   29.91R WCI  25
CEDAR CITY     MOSUNNY   38  17  42 W7        29.92S WCI  33
MILFORD        SUNNY     38   9  30 N14       29.95S WCI  30
ST GEORGE      MOCLDY    54  18  24 SW5       29.90F
HANKSVILLE     CLEAR     50  18  27 N9        29.88S
BLANDING       CLEAR     44  17  34 CALM      29.92S

$$

REGIONAL REPORTS     COLORADO/ARIZONA

CITY           SKY/WX    TMP DP  RH WIND       PRES   REMARKS
CRAIG, CO      CLOUDY    23  -7  26 NW9       29.93R WCI  13
GRAND JUNCTION MOCLDY    42  20  41 NW9       29.82R
RIFLE, CO      CLOUDY    37  14  38 NW17G35   29.83R WCI  27
MONTROSE, CO   CLOUDY    44  12  27 NW17G25   29.83R
CORTEZ, CO     CLEAR     46  16  30 W6        29.85S
COLORADO CITY    N/A     52  16  24 W3        29.93S
PAGE, AZ       MOSUNNY   51  16  24 CALM      29.84F
GRAND CANYON   SUNNY     49  14  24 N8        29.95R
KINGMAN, AZ    PTSUNNY   57   4  12 MISG      29.91S
FLAGSTAFF, AZ  SUNNY     43  14  31 S10       29.95S

$$

REGIONAL REPORTS    NEVADA/IDAHO/WYOMING

CITY           SKY/WX    TMP DP  RH WIND       PRES   REMARKS
LAS VEGAS, NV  PTSUNNY   60  14  16 N3        29.88F
ELY, NY        SUNNY     39  12  33 NW9       29.90F WCI  33
ELKO, NV       MOSUNNY   33   9  36 W6        29.96F WCI  28
POCATELLO, ID  PTCLDY    23  14  68 S13       30.03F WCI  11
BURLEY, ID     CLEAR     25  14  63 W6        30.03F WCI  18
FORT BRIDGER,    N/A     19  -4  37 N7        29.94R WCI   9
EVANSTON, WY   CLEAR     18 -16  21 W10       29.91R WCI   6
ROCK SPRINGS,  CLEAR     17  -5  37 W17G24    29.89R WCI   1

$$



USA.gov is the U.S. government's official web portal to all federal, state and local government web resources and services.